Weather in Golubinka

Russia / Republic of Crimea     44°35′39″N   33°55′01″E
temp.,
°C
wind,
m/s
gust,
m/s
humid.,
%
clouds,
%
prec.,
mm/h
press.,
hPa
HPBL,
m
19 september, sun
sun1900:00+14se228939 0.1 101133
03:00+14wsw1285100 0.3 101126
06:00+14sw2397100 2.3 1011121
09:00+16sw249491 6.4 1010275
12:00+20sw34708 2.2 1010873
15:00+21w565616 2.4 10101396
18:00+17wnw336888 0.0 1011266
21:00+14nnw22840 0.0 101246
20 september, mon
mon2000:00+13nnw22760 0.0 101232
03:00+13nnw22685 0.0 101331
06:00+13nnw01670 0.0 101314
09:00+17sw25580 0.0 1013553
12:00+19sw36560 0.0 10131098
15:00+18wsw356391 0.0 1013666
18:00+18w226939 0.0 101380
21:00+15nw118064 0.1 101412
21 september, tue
tue2100:00+14ene128180 0.2 101415
03:00+14n3392100 1.4 1014102
06:00+13nw119558 1.1 101450
09:00+12nnw229399 1.3 1016188
12:00+15nw237368 0.2 1016731
15:00+17nw335715 0.4 10161095
18:00+12nnw457296 0.0 1018494
21:00+9n457618 0.0 1019244
22 september, wed
wed2200:00+7n44760 0.0 1020105
03:00+6n34775 0.0 102076
06:00+5n33801 0.0 102066
09:00+10nnw22656 0.0 1019502
12:00+11nw565847 0.1 10181363
15:00+11nw345936 0.1 10171216
18:00+9nnw236450 0.0 1017529
21:00+6n2176100 0.0 101853
23 september, thu
thu2300:00+6ene2376100 0.0 1016100
03:00+8ene2385100 0.3 1014237
06:00+7ne239299 0.1 1014106
09:00+8nne2488100 0.4 1013228
12:00+8n3480100 0.1 1012381
15:00+6n3581100 1.8 1012307
18:00+7n2677100 1.6 1013670
21:00+6n337280 1.6 101582